アトラス彗星

C/2019 T4 ( ATLAS )

English version
Home page
Updated on February 19, 2020

---------------------------------------------------------------------

・ プロフィール

発見日 2019年10月9日
発見光度 19.3等
発見者 Asteroid Terrestrial-Impact Last Alert System (ATLAS) search program

・ 写真集

・ 軌道要素

Epoch 2022 May 21.0 TT = JDT 2459720.5
T 2022 June  9.22516 TT                                 Bell
q   4.2427560            (2000.0)            P               Q
z  +0.0010219      Peri.  351.20017     -0.95992294     +0.05604957
 +/-0.0000123      Node   199.94023     -0.18197126     -0.86982634
e   0.9956643      Incl.   53.62876     -0.21315348     +0.49016384
From 54 observations 2019 Feb. 5-2020 Feb. 4, mean residual 0".4.

・ 星図

・ 光度変化

        m1 = -9.0 + 5 logΔ + 25   log r  [    ,-975]  (              〜2019年10月 8日)
        m1 =  5.0 + 5 logΔ + 10.0 log r  [-975,    ]  (2019年10月 8日〜              )

---------------------------------------------------------------------

軌道要素はM.P.E.C. 2020-C98に掲載されたものです。
星図はステラナビゲータ Ver.10 (アストロアーツ) で作成したものです。
光度グラフはComet for Windowsで作成したものです。

---------------------------------------------------------------------

Copyright(C) Seiichi Yoshida (comet@aerith.net). All rights reserved.